When you browse on this site, cookies collect data to enhance your experience and personalize the content and advertising you see.
Visit our Privacy Policy to learn more. By continuing to use the site, you agree to this use of cookies and data.
  • en France
  • Liste des pays
  • À 7 jours
  • Température de l'eau
  • Carte satellitaire
  • Carte météo
  • Widgets météo
  • user-avatar
    Se connecter

    Météo par heure à Boradigah

    Ce jour, 19 Juillet, Vendredi

    Heure Température Précipitation Vent Pression Humidité
    00:00 +26°C° 0 mm 1 m/s 755 mmHg 62%
    01:00 +26°C° 0 mm 1 m/s 755 mmHg 64%
    02:00 +26°C° 0 mm 1 m/s 755 mmHg 65%
    03:00 +25°C° 0 mm 1 m/s 755 mmHg 67%
    04:00 +26°C° 0 mm 1 m/s 756 mmHg 66%
    05:00 +27°C° 0 mm 1 m/s 756 mmHg 65%
    06:00 +27°C° 0 mm 1 m/s 757 mmHg 64%
    07:00 +29°C° 0 mm 2 m/s 757 mmHg 57%
    08:00 +31°C° 0 mm 2 m/s 757 mmHg 49%
    09:00 +34°C° 0 mm 3 m/s 758 mmHg 42%
    10:00 +35°C° 0 mm 3 m/s 757 mmHg 40%
    11:00 +36°C° 0 mm 4 m/s 757 mmHg 38%
    12:00 +36°C° 0 mm 4 m/s 757 mmHg 36%
    13:00 +36°C° 0 mm 4 m/s 757 mmHg 36%
    14:00 +36°C° 0 mm 4 m/s 756 mmHg 36%
    15:00 +36°C° 0 mm 4 m/s 756 mmHg 37%
    16:00 +35°C° 0 mm 4 m/s 756 mmHg 40%
    17:00 +34°C° 0 mm 3 m/s 757 mmHg 43%
    18:00 +33°C° 0 mm 3 m/s 757 mmHg 46%
    19:00 +30°C° 0 mm 2 m/s 757 mmHg 50%
    20:00 +29°C° 0 mm 2 m/s 758 mmHg 53%
    21:00 +28°C° 0 mm 2 m/s 758 mmHg 56%
    22:00 +28°C° 0 mm 2 m/s 759 mmHg 55%
    23:00 +28°C° 0 mm 2 m/s 759 mmHg 53%

    Demain, 20 Juillet, Samedi

    Heure Température Précipitation Vent Pression Humidité
    00:00 +28°C° 0 mm 2 m/s 759 mmHg 52%
    01:00 +28°C° 0 mm 2 m/s 759 mmHg 51%
    02:00 +28°C° 0 mm 2 m/s 759 mmHg 49%
    03:00 +28°C° 0 mm 2 m/s 759 mmHg 48%
    04:00 +29°C° 0 mm 2 m/s 760 mmHg 45%
    05:00 +30°C° 0 mm 2 m/s 760 mmHg 42%
    06:00 +31°C° 0 mm 2 m/s 760 mmHg 39%
    07:00 +34°C° 0 mm 2 m/s 760 mmHg 35%
    08:00 +36°C° 0 mm 3 m/s 761 mmHg 31%
    09:00 +38°C° 0 mm 3 m/s 761 mmHg 27%
    10:00 +38°C° 0 mm 4 m/s 761 mmHg 27%
    11:00 +40°C° 0 mm 5 m/s 761 mmHg 26%
    12:00 +40°C° 0 mm 5 m/s 761 mmHg 25%
    13:00 +40°C° 0 mm 6 m/s 760 mmHg 26%
    14:00 +39°C° 0 mm 6 m/s 760 mmHg 28%
    15:00 +38°C° 0 mm 6 m/s 760 mmHg 29%
    16:00 +36°C° 0 mm 5 m/s 760 mmHg 32%
    17:00 +35°C° 0 mm 4 m/s 760 mmHg 35%
    18:00 +34°C° 0 mm 3 m/s 761 mmHg 37%
    19:00 +31°C° 0 mm 3 m/s 761 mmHg 41%
    20:00 +29°C° 0 mm 3 m/s 762 mmHg 44%
    21:00 +28°C° 0 mm 2 m/s 762 mmHg 48%
    22:00 +28°C° 0 mm 2 m/s 762 mmHg 48%
    23:00 +28°C° 0 mm 2 m/s 763 mmHg 48%

    Après-demain, 21 Juillet, Dimanche

    Heure Température Précipitation Vent Pression Humidité
    00:00 +28°C° 0 mm 2 m/s 763 mmHg 49%
    01:00 +28°C° 0 mm 2 m/s 763 mmHg 48%
    02:00 +28°C° 0 mm 2 m/s 762 mmHg 48%
    03:00 +28°C° 0 mm 2 m/s 762 mmHg 48%
    04:00 +29°C° 0 mm 2 m/s 762 mmHg 46%
    05:00 +30°C° 0 mm 2 m/s 763 mmHg 43%
    06:00 +31°C° 0 mm 2 m/s 763 mmHg 41%
    07:00 +32°C° 0 mm 2 m/s 763 mmHg 38%
    08:00 +35°C° 0 mm 2 m/s 763 mmHg 34%
    09:00 +36°C° 0 mm 3 m/s 762 mmHg 31%
    10:00 +37°C° 0 mm 4 m/s 762 mmHg 30%
    11:00 +38°C° 0 mm 4 m/s 761 mmHg 29%
    12:00 +40°C° 0 mm 5 m/s 761 mmHg 29%
    13:00 +39°C° 0 mm 5 m/s 760 mmHg 30%
    14:00 +38°C° 0 mm 4 m/s 759 mmHg 31%
    15:00 +38°C° 0 mm 4 m/s 759 mmHg 32%
    16:00 +36°C° 0 mm 4 m/s 759 mmHg 36%
    17:00 +35°C° 0 mm 3 m/s 759 mmHg 40%
    18:00 +34°C° 0 mm 3 m/s 759 mmHg 44%
    19:00 +31°C° 0 mm 2 m/s 759 mmHg 49%
    20:00 +29°C° 0 mm 1 m/s 760 mmHg 54%
    21:00 +25°C° 0 mm 0 m/s 760 mmHg 60%
    22:00 +27°C° 0 mm 1 m/s 760 mmHg 59%
    23:00 +27°C° 0 mm 1 m/s 760 mmHg 58%

    22 Juillet, Lundi

    Heure Température Précipitation Vent Pression Humidité
    00:00 +27°C° 0 mm 1 m/s 759 mmHg 58%
    01:00 +27°C° 0 mm 1 m/s 759 mmHg 58%
    02:00 +26°C° 0 mm 1 m/s 759 mmHg 58%
    03:00 +26°C° 0 mm 1 m/s 759 mmHg 57%
    04:00 +27°C° 0 mm 1 m/s 759 mmHg 54%
    05:00 +28°C° 0 mm 1 m/s 759 mmHg 50%
    06:00 +30°C° 0 mm 1 m/s 759 mmHg 47%
    07:00 +31°C° 0 mm 2 m/s 759 mmHg 43%
    08:00 +34°C° 0 mm 2 m/s 758 mmHg 39%
    09:00 +36°C° 0 mm 3 m/s 758 mmHg 35%
    10:00 +37°C° 0 mm 3 m/s 758 mmHg 34%
    11:00 +37°C° 0 mm 4 m/s 757 mmHg 33%
    12:00 +38°C° 0 mm 4 m/s 757 mmHg 32%
    13:00 +38°C° 0 mm 4 m/s 757 mmHg 33%
    14:00 +38°C° 0 mm 4 m/s 756 mmHg 34%
    15:00 +38°C° 0 mm 4 m/s 756 mmHg 35%
    16:00 +36°C° 0 mm 3 m/s 756 mmHg 40%
    17:00 +35°C° 0 mm 3 m/s 756 mmHg 44%
    18:00 +34°C° 0 mm 2 m/s 756 mmHg 49%
    19:00 +31°C° 0 mm 2 m/s 756 mmHg 56%
    20:00 +29°C° 0 mm 1 m/s 756 mmHg 62%
    21:00 +27°C° 0 mm 1 m/s 757 mmHg 69%
    22:00 +27°C° 0 mm 1 m/s 757 mmHg 70%
    23:00 +27°C° 0 mm 1 m/s 757 mmHg 72%

    23 Juillet, Mardi

    Heure Température Précipitation Vent Pression Humidité
    00:00 +26°C° 0 mm 2 m/s 757 mmHg 74%
    01:00 +26°C° 0 mm 2 m/s 757 mmHg 72%
    02:00 +26°C° 0 mm 2 m/s 757 mmHg 71%
    03:00 +26°C° 0 mm 2 m/s 757 mmHg 70%
    04:00 +27°C° 0 mm 2 m/s 757 mmHg 65%
    05:00 +28°C° 0 mm 2 m/s 757 mmHg 61%
    06:00 +29°C° 0 mm 3 m/s 757 mmHg 57%
    07:00 +30°C° 0 mm 3 m/s 757 mmHg 51%
    08:00 +33°C° 0 mm 4 m/s 757 mmHg 45%
    09:00 +35°C° 0 mm 5 m/s 758 mmHg 39%
    10:00 +36°C° 0 mm 5 m/s 757 mmHg 38%
    11:00 +36°C° 0 mm 6 m/s 757 mmHg 36%
    12:00 +38°C° 0 mm 6 m/s 756 mmHg 34%
    13:00 +36°C° 0 mm 6 m/s 756 mmHg 35%
    14:00 +36°C° 0 mm 5 m/s 755 mmHg 36%
    15:00 +36°C° 0 mm 5 m/s 755 mmHg 36%
    16:00 +34°C° 0 mm 5 m/s 755 mmHg 41%
    17:00 +33°C° 0 mm 5 m/s 754 mmHg 45%
    18:00 +32°C° 0 mm 4 m/s 754 mmHg 50%
    19:00 +30°C° 0 mm 3 m/s 755 mmHg 53%
    20:00 +28°C° 0 mm 2 m/s 755 mmHg 56%
    21:00 +27°C° 0 mm 1 m/s 755 mmHg 60%
    22:00 +27°C° 0 mm 1 m/s 755 mmHg 59%
    23:00 +26°C° 0 mm 2 m/s 755 mmHg 59%

    24 Juillet, Mercredi

    Heure Température Précipitation Vent Pression Humidité
    00:00 +26°C° 0 mm 2 m/s 755 mmHg 58%
    01:00 +26°C° 0 mm 2 m/s 755 mmHg 56%
    02:00 +26°C° 0 mm 2 m/s 755 mmHg 55%
    03:00 +26°C° 0 mm 2 m/s 755 mmHg 53%
    04:00 +27°C° 0 mm 2 m/s 755 mmHg 49%
    05:00 +28°C° 0 mm 2 m/s 755 mmHg 45%
    06:00 +29°C° 0 mm 1 m/s 755 mmHg 42%
    07:00 +32°C° 0 mm 2 m/s 755 mmHg 37%
    08:00 +35°C° 0 mm 2 m/s 755 mmHg 32%
    09:00 +37°C° 0 mm 3 m/s 755 mmHg 27%
    10:00 +38°C° 0 mm 3 m/s 755 mmHg 26%
    11:00 +40°C° 0 mm 4 m/s 754 mmHg 25%
    12:00 +41°C° 0 mm 5 m/s 754 mmHg 24%
    13:00 +40°C° 0 mm 5 m/s 753 mmHg 25%
    14:00 +40°C° 0 mm 5 m/s 753 mmHg 26%
    15:00 +40°C° 0 mm 5 m/s 753 mmHg 27%
    16:00 +37°C° 0 mm 5 m/s 753 mmHg 30%
    17:00 +36°C° 0 mm 5 m/s 753 mmHg 32%
    18:00 +35°C° 0 mm 5 m/s 753 mmHg 35%
    19:00 +33°C° 0 mm 4 m/s 753 mmHg 42%
    20:00 +30°C° 0 mm 3 m/s 754 mmHg 49%
    21:00 +28°C° 0 mm 2 m/s 754 mmHg 56%
    22:00 +28°C° 0 mm 2 m/s 754 mmHg 55%
    23:00 +28°C° 0 mm 1 m/s 754 mmHg 54%
    Voir plus